Wind_Speed
7 7 6 6 6 6 6 6 5 5 5 6 6 7 7 7 6 5 4 3 3 2 2 2 2 2 2 2 2 2 2 2 2 2 3 3 3 3 4 3 4 4 4
8 8 8 7 7 7 7 7 7 7 7 7 8 8 8 8 8 7 6 5 4 4 3 3 3 3 2 1 1 1 0 1 1 1 2 2 2 2 3 3 3 3 3
10 9 9 9 8 8 8 8 8 8 8 9 9 9 9 9 9 9 8 7 6 5 5 4 4 4 3 2 2 1 1 1 1 1 1 1 1 1 2 2 2 2 2
11 11 10 10 10 9 9 9 9 9 9 10 10 10 10 11 11 10 10 9 8 7 7 6 6 5 4 4 3 3 3 2 2 2 2 1 1 1 1 1 1 1 1
12 12 12 11 11 11 11 11 11 11 11 11 12 12 12 12 12 12 11 11 10 9 8 8 7 7 6 5 5 5 4 4 4 3 3 3 3 3 2 1 1 1 0
13 13 13 13 13 12 12 12 12 12 12 13 13 13 14 14 14 14 13 12 12 11 10 10 9 8 8 7 7 6 6 6 5 5 5 4 4 4 3 2 2 2 2
13 14 14 13 14 13 13 13 13 14 14 14 14 15 15 15 15 15 15 14 13 13 12 11 10 10 9 9 8 8 8 7 7 6 6 6 5 5 4 3 3 3 3
13 14 14 14 14 14 15 15 15 15 16 16 16 16 17 17 17 17 16 16 15 14 14 13 12 11 11 11 10 10 9 9 9 8 8 8 7 7 6 5 5 4 4
14 14 14 14 15 15 15 16 16 16 17 18 18 18 19 19 19 18 18 17 17 16 16 15 14 13 13 13 12 12 12 11 11 11 10 10 10 9 8 8 7 6 6
16 15 14 14 14 15 15 16 16 17 17 18 19 19 19 20 19 19 19 18 18 18 18 17 16 15 15 15 15 14 14 13 13 13 11 11 11 11 10 10 9 9 8
17 16 15 15 15 15 16 17 18 18 18 19 20 20 20 20 20 20 20 20 20 20 20 19 18 17 17 17 17 16 16 16 15 14 13 13 13 12 12 12 12 11 10
17 17 16 16 16 16 16 18 17 18 19 20 21 22 22 22 21 21 22 22 21 21 21 21 20 20 19 19 18 19 18 18 16 15 15 15 14 14 14 14 13 13 13
18 17 16 17 16 15 17 17 17 18 19 20 21 21 21 22 22 21 22 22 22 21 21 21 22 21 21 21 20 20 20 20 18 17 17 16 17 17 16 15 15 15 15
17 16 15 16 17 17 16 18 19 20 20 21 22 23 22 22 23 23 23 24 24 23 22 22 22 21 21 22 21 21 21 21 19 18 18 18 18 18 17 17 17 17 17
18 18 17 18 18 19 19 20 20 21 21 21 22 23 23 23 25 25 25 25 25 24 23 22 21 21 21 22 22 21 21 21 20 19 20 20 20 19 19 19 19 18 18
19 19 19 19 20 21 21 21 21 22 22 22 23 24 24 25 25 25 25 25 26 26 25 24 23 22 22 23 23 23 23 22 21 20 20 20 20 21 20 21 21 20 20
20 20 19 20 21 21 21 21 22 23 24 23 24 25 26 27 27 27 26 26 26 26 26 25 25 24 24 23 23 23 23 23 23 22 22 22 22 22 22 22 22 22 21
20 21 22 22 21 22 22 22 23 24 24 25 25 26 27 28 29 29 28 28 27 27 27 27 27 26 25 25 25 24 24 25 24 23 24 23 23 24 24 23 23 23 23
20 22 23 23 23 23 24 24 24 25 25 25 25 26 27 28 29 30 30 29 29 28 28 28 28 27 26 26 26 27 26 26 25 25 25 24 24 25 25 24 25 25 25
23 23 24 24 25 25 26 26 26 25 26 26 26 26 27 28 29 30 31 31 31 30 30 29 28 28 28 27 27 28 28 27 27 26 26 25 25 25 26 27 26 27 27
24 24 25 25 26 27 27 27 27 27 27 27 27 28 28 28 29 30 30 31 32 31 30 30 30 30 29 29 28 27 27 28 28 28 27 27 28 28 28 28 28 28 28
24 24 26 26 26 27 28 28 28 28 28 28 28 28 29 29 30 30 30 30 31 31 31 31 31 31 30 31 29 29 28 28 28 30 30 30 30 30 30 30 30 30 29
24 25 26 27 28 28 29 29 29 30 29 29 29 29 30 29 29 30 31 30 30 31 32 32 33 32 31 31 31 30 30 29 30 31 31 32 32 32 32 32 32 33 33
24 24 25 26 28 29 29 30 30 31 31 31 31 31 31 30 29 30 30 31 30 30 31 32 33 33 32 31 31 31 32 31 30 31 32 32 33 34 34 34 34 35 35
24 25 26 27 28 29 30 30 31 31 32 32 32 32 31 29 29 29 29 30 31 31 31 31 32 33 33 33 32 32 32 32 32 33 33 33 34 34 35 35 35 36 36
24 25 26 27 28 29 29 29 30 31 32 32 32 32 31 30 29 29 29 29 30 30 31 31 32 33 34 34 34 34 34 34 34 34 34 34 34 34 35 36 36 36 36
Wind_Direction
245 243 245 246 242 234 230 230 229 231 233 240 241 241 243 244 246 247 249 245 248 263 282 303 321 348 360 20 39 54 70 75 77 73 72 70 72 74 76 75 72 68 64
251 249 251 250 249 246 241 238 238 241 244 246 248 248 246 247 251 252 254 254 258 267 274 287 296 306 319 325 339 15 70 83 87 88 92 89 86 83 81 77 72 68 62
253 254 256 255 255 254 249 245 244 246 249 251 253 253 250 252 254 254 255 256 261 268 275 280 283 288 296 293 286 274 254 244 223 163 146 134 126 103 87 78 73 66 57
256 256 257 257 258 257 255 253 250 251 252 254 256 256 255 257 258 258 256 258 262 267 271 275 276 278 281 279 270 263 256 250 245 224 204 200 193 192 162 100 87 73 53
258 258 257 259 260 261 259 258 256 256 256 256 258 259 259 260 259 259 259 261 264 267 268 270 272 272 273 271 265 259 256 253 251 241 223 220 221 220 226 234 237 252 306
258 257 257 261 261 262 261 261 261 261 262 264 264 263 263 262 261 260 261 264 268 269 269 270 272 271 271 269 267 263 259 255 254 250 236 230 227 230 238 245 245 251 250
257 260 260 262 261 261 261 263 264 263 263 266 267 267 267 266 264 264 264 266 268 270 272 271 272 270 268 267 266 266 262 259 257 255 242 246 241 238 242 244 243 249 248
258 263 261 260 261 262 264 264 264 263 263 264 265 267 268 268 268 267 267 267 268 269 271 270 269 269 268 266 265 265 264 260 258 253 247 246 245 245 243 245 245 247 247
261 264 265 264 266 268 268 266 266 265 264 264 265 266 267 268 268 268 268 267 267 268 269 268 268 268 267 266 265 264 263 261 258 253 250 248 247 247 246 245 244 244 244
262 265 266 264 266 267 267 267 267 266 266 265 265 265 266 267 268 268 266 266 267 269 267 266 265 267 266 265 264 264 262 261 259 256 250 250 250 251 249 247 245 245 246
267 267 268 270 270 267 267 268 267 266 267 268 267 266 266 266 266 267 265 265 268 269 268 265 264 266 266 264 263 263 262 259 259 258 252 249 249 253 253 250 247 246 247
272 271 271 271 271 270 267 267 265 265 268 270 269 267 265 264 264 266 266 265 267 269 268 265 262 264 265 264 263 262 262 260 256 254 253 251 252 252 252 251 248 247 247
275 277 271 278 275 275 272 268 270 273 273 273 271 269 267 265 265 265 265 265 267 268 267 265 262 262 262 262 262 262 262 262 260 256 254 253 255 251 250 250 250 249 250
273 279 277 278 276 277 277 276 275 275 273 273 274 272 271 268 265 266 267 265 267 268 268 266 265 263 262 261 262 262 261 261 260 255 252 254 255 254 253 252 251 252 253
277 281 276 273 275 276 276 277 276 275 272 275 275 272 270 268 267 269 268 268 268 267 268 266 265 265 267 265 263 262 260 260 258 256 251 252 253 253 253 252 251 252 253
279 281 281 278 279 279 277 276 276 277 276 275 273 273 271 270 269 271 269 269 270 268 267 266 266 266 266 267 265 263 260 259 257 256 253 252 253 251 253 253 252 252 254
282 281 281 282 282 280 280 279 278 278 278 276 273 273 273 272 271 269 270 271 271 269 268 267 268 266 266 266 263 260 258 258 258 257 255 254 255 255 253 254 254 253 255
282 283 283 283 281 280 280 279 277 277 276 275 274 275 275 274 271 268 269 270 270 267 267 267 268 267 266 264 262 259 257 258 258 259 257 257 258 258 255 255 254 255 256
282 282 283 282 281 281 281 280 279 278 277 275 275 276 275 275 275 271 270 270 270 268 266 265 267 268 267 266 263 259 257 259 259 258 258 258 260 258 255 255 256 257 258
283 282 281 281 282 281 281 280 279 279 277 276 274 276 274 276 276 273 271 270 270 268 266 265 268 267 266 266 265 260 257 257 256 257 257 257 258 257 256 256 258 259 258
283 282 281 280 280 279 280 280 279 278 277 276 275 275 275 276 277 274 272 270 270 267 265 265 267 267 267 265 265 261 257 256 257 257 257 258 258 258 257 257 258 260 258
284 282 281 280 279 279 280 279 278 277 276 276 276 276 277 277 276 275 273 272 270 267 264 264 264 265 267 265 263 261 260 259 259 259 258 258 258 258 259 259 259 259 260
284 283 283 281 280 279 279 279 279 279 277 278 279 279 278 278 276 275 274 272 270 268 266 264 263 263 265 264 263 261 262 262 260 260 260 259 258 259 261 261 261 260 261
285 286 285 284 282 281 280 279 278 278 278 278 278 280 278 278 276 274 273 270 269 268 266 264 264 263 262 262 263 262 262 262 262 261 261 260 260 261 262 263 263 262 263
287 286 285 285 284 282 281 280 279 278 278 279 278 279 280 279 277 275 273 271 269 269 268 266 266 263 261 261 261 261 263 263 263 263 262 262 262 264 264 264 265 265 264
288 287 286 285 285 284 282 281 280 280 279 279 278 278 280 279 276 275 274 273 271 270 268 266 266 266 263 262 262 262 263 263 262 264 262 263 263 263 264 264 265 266 267
Height
5896 5896 5897 5898 5898 5899 5899 5899 5900 5900 5901 5901 5902 5902 5902 5902 5902 5902 5902 5902 5901 5901 5901 5900 5900 5900 5899 5899 5899 5898 5898 5898 5898 5898 5898 5898 5898 5898 5898 5898 5898 5898 5898
5895 5896 5896 5897 5897 5898 5898 5899 5899 5899 5900 5900 5901 5901 5901 5902 5902 5902 5902 5901 5901 5901 5900 5900 5900 5899 5899 5899 5898 5898 5898 5898 5898 5898 5898 5898 5898 5899 5899 5899 5899 5899 5899
5894 5895 5895 5896 5896 5897 5897 5898 5898 5898 5899 5899 5900 5900 5900 5901 5901 5901 5901 5900 5900 5900 5900 5900 5899 5899 5899 5898 5898 5898 5898 5898 5898 5898 5898 5898 5898 5899 5899 5899 5899 5899 5899
5893 5894 5894 5895 5895 5896 5896 5897 5897 5897 5898 5898 5898 5899 5899 5899 5900 5900 5899 5899 5899 5899 5899 5899 5899 5898 5898 5898 5898 5897 5897 5897 5897 5897 5898 5898 5898 5898 5899 5899 5899 5899 5899
5892 5893 5893 5893 5894 5894 5895 5895 5896 5896 5896 5897 5897 5897 5898 5898 5898 5898 5898 5898 5898 5898 5898 5898 5898 5898 5898 5897 5897 5897 5897 5897 5897 5897 5897 5898 5898 5898 5898 5898 5899 5899 5899
5891 5891 5891 5892 5892 5893 5893 5893 5894 5894 5895 5895 5896 5896 5896 5896 5896 5896 5896 5896 5897 5897 5897 5897 5896 5897 5897 5896 5896 5896 5896 5896 5896 5897 5897 5897 5897 5898 5898 5898 5898 5899 5899
5889 5889 5889 5890 5890 5890 5891 5891 5892 5892 5893 5893 5894 5894 5894 5894 5894 5894 5894 5895 5895 5895 5895 5895 5895 5895 5895 5895 5895 5895 5895 5895 5895 5896 5896 5896 5897 5897 5897 5897 5898 5898 5898
5886 5886 5887 5887 5888 5888 5888 5889 5889 5889 5890 5891 5891 5891 5892 5892 5892 5892 5892 5892 5892 5893 5893 5893 5893 5893 5893 5894 5893 5894 5894 5894 5894 5895 5895 5895 5896 5896 5896 5897 5897 5898 5898
5883 5883 5884 5884 5885 5885 5886 5886 5886 5886 5887 5888 5888 5888 5889 5889 5889 5890 5890 5890 5890 5890 5890 5890 5891 5891 5891 5891 5892 5892 5892 5892 5892 5893 5894 5894 5894 5895 5895 5895 5896 5896 5897
5880 5880 5881 5881 5881 5882 5882 5883 5883 5883 5884 5884 5885 5885 5885 5886 5886 5886 5887 5887 5887 5887 5887 5887 5888 5888 5889 5889 5889 5889 5890 5889 5890 5890 5891 5892 5893 5893 5894 5894 5894 5895 5896
5877 5877 5877 5877 5878 5878 5879 5879 5880 5880 5880 5881 5881 5881 5882 5882 5882 5883 5883 5883 5883 5883 5884 5884 5885 5885 5886 5886 5886 5887 5887 5886 5887 5887 5888 5888 5889 5891 5891 5892 5893 5893 5894
5873 5872 5873 5873 5873 5874 5875 5875 5875 5876 5877 5877 5877 5877 5878 5878 5879 5879 5879 5879 5879 5879 5880 5880 5881 5882 5882 5883 5883 5883 5883 5883 5883 5883 5885 5885 5886 5887 5888 5889 5890 5891 5892
5869 5867 5868 5869 5869 5869 5870 5870 5871 5872 5873 5873 5873 5873 5873 5874 5874 5874 5875 5875 5875 5875 5875 5876 5876 5877 5878 5879 5879 5879 5880 5880 5880 5881 5881 5882 5883 5883 5884 5886 5888 5888 5889
5864 5864 5864 5865 5865 5866 5866 5867 5867 5868 5868 5869 5869 5868 5868 5869 5869 5870 5870 5870 5870 5871 5871 5871 5872 5873 5873 5874 5875 5875 5876 5876 5876 5877 5878 5879 5879 5880 5882 5883 5884 5885 5886
5860 5862 5861 5861 5862 5863 5864 5864 5864 5863 5863 5864 5865 5864 5864 5864 5864 5865 5865 5865 5866 5866 5865 5866 5866 5867 5868 5870 5870 5871 5872 5872 5873 5874 5875 5876 5876 5877 5878 5879 5880 5881 5883
5857 5858 5858 5858 5859 5860 5860 5860 5860 5859 5858 5859 5860 5859 5859 5859 5859 5860 5860 5860 5861 5861 5861 5860 5862 5863 5863 5864 5865 5866 5867 5867 5868 5869 5870 5872 5872 5873 5874 5875 5877 5877 5879
5854 5854 5854 5855 5856 5855 5856 5856 5856 5855 5855 5855 5855 5854 5854 5854 5854 5854 5854 5855 5855 5855 5855 5855 5856 5857 5858 5859 5859 5860 5861 5862 5863 5864 5866 5867 5868 5869 5870 5871 5872 5873 5874
5850 5850 5850 5851 5851 5851 5851 5851 5851 5851 5850 5850 5849 5849 5849 5848 5848 5848 5849 5849 5849 5850 5850 5851 5851 5851 5852 5853 5854 5855 5856 5857 5858 5859 5860 5861 5863 5864 5865 5866 5867 5868 5869
5845 5846 5846 5847 5846 5846 5846 5846 5845 5845 5845 5844 5843 5843 5843 5843 5842 5842 5842 5843 5843 5844 5844 5845 5845 5845 5846 5847 5847 5848 5850 5851 5852 5853 5855 5856 5857 5859 5860 5861 5862 5863 5864
5842 5842 5842 5842 5841 5841 5841 5840 5840 5839 5839 5837 5837 5837 5837 5836 5836 5835 5836 5836 5836 5837 5837 5838 5838 5839 5840 5841 5841 5842 5843 5845 5846 5847 5848 5850 5851 5853 5854 5855 5856 5857 5859
5837 5837 5837 5837 5836 5836 5835 5835 5834 5833 5833 5832 5831 5831 5831 5830 5829 5829 5829 5829 5829 5830 5830 5831 5831 5833 5834 5834 5835 5836 5837 5838 5840 5841 5842 5843 5845 5846 5848 5849 5850 5852 5853
5832 5832 5831 5831 5830 5830 5829 5828 5828 5827 5826 5826 5825 5825 5824 5823 5823 5822 5822 5822 5822 5822 5823 5824 5825 5826 5826 5827 5828 5829 5831 5833 5834 5835 5836 5837 5838 5839 5841 5843 5844 5845 5846
5828 5827 5826 5825 5824 5823 5823 5822 5821 5821 5820 5819 5819 5818 5817 5816 5816 5816 5815 5815 5815 5815 5816 5817 5818 5818 5819 5820 5821 5822 5824 5826 5826 5828 5829 5830 5831 5833 5834 5835 5837 5838 5839
5823 5821 5820 5819 5818 5817 5816 5815 5815 5814 5814 5813 5812 5811 5811 5809 5809 5809 5808 5808 5808 5808 5809 5810 5810 5811 5812 5813 5814 5815 5816 5818 5819 5820 5822 5822 5824 5825 5826 5828 5829 5830 5832
5817 5816 5815 5813 5812 5811 5810 5809 5808 5807 5806 5806 5805 5804 5804 5803 5802 5802 5801 5801 5801 5801 5801 5802 5802 5803 5804 5806 5807 5807 5808 5810 5811 5812 5814 5815 5815 5817 5818 5820 5821 5822 5823
5812 5810 5809 5807 5806 5804 5803 5802 5801 5800 5799 5798 5798 5797 5796 5796 5795 5795 5794 5794 5794 5794 5794 5794 5795 5795 5796 5797 5799 5800 5801 5802 5803 5804 5805 5806 5807 5809 5810 5811 5812 5813 5814